Skip Page Navigation
NASA JPL Caltech
NASA Logo - Jet Propulsion Laboratory + View the NASA Portal
+ Center for Near-Earth Object Studies
JPL Home Earth Solar System Stars & Galaxies Technology
JPL Solar System Dynamics
BODIES ORBITS EPHEMERIDES TOOLS PHYSICAL DATA DISCOVERY FAQ SITE MAP
JPL Small-Body Database Browser
Search: [ help ]  
359455 (2010 NW37)
Classification: Outer Main-belt Asteroid          SPK-ID: 2359455
Ephemeris | Orbit Diagram | Orbital Elements | Mission Design | Physical Parameters | Discovery Circumstances | Close-Approach Data ]

[ show orbit diagram ]
Orbital Elements at Epoch 2459000.5 (2020-May-31.0) TDB
Reference: JPL 10 (heliocentric ecliptic J2000)
 Element Value Uncertainty (1-sigma)   Units 
e .07839500058406335 6.6784e-08  
a 3.225822426028646 6.5522e-08 au
q 2.972934075056046 2.272e-07 au
i 14.77580580623856 8.3499e-06 deg
node 12.83795718391468 2.7055e-05 deg
peri 312.7095379748283 6.3921e-05 deg
M 280.6144166773598 6.3206e-05 deg
tp 2459467.157501665050
(2021-Sep-09.65750166)
0.00038062 TDB
period 2116.211704543923
5.79
6.4476e-05
1.765e-07
d
yr
n .170115305206473 5.183e-09 deg/d
Q 3.478710777001247 7.0659e-08 au
  Orbit Determination Parameters
   # obs. used (total)      201  
   data-arc span      5620 days (15.39 yr)  
   first obs. used      2004-09-04  
   last obs. used      2020-01-24  
   planetary ephem.      DE431  
   SB-pert. ephem.      SB431-N16  
   condition code      0  
   norm. resid. RMS      .58461  
   source      ORB  
   producer      Otto Matic  
   solution date      2020-Feb-26 00:43:49  

Additional Information
 Earth MOID = 1.98524 au 
 Jupiter MOID = 1.8996 au 
 T_jup = 3.131 
[ show covariance matrix ]

Ephemeris | Orbit Diagram | Orbital Elements | Mission Design | Physical Parameters | Discovery Circumstances | Close-Approach Data ]

Physical Parameter Table
Parameter Symbol Value Units Sigma Reference Notes
absolute magnitude H 15.4   n/a MPO434267  
diameter diameter 4.855 km 0.172 urn:nasa:pds:neowise_diameters_albedos::2.0[mainbelt] (http://adsabs.harvard.edu/abs/2011ApJ...741...68M)  
geometric albedo albedo 0.052   0.010 urn:nasa:pds:neowise_diameters_albedos::2.0[mainbelt] (http://adsabs.harvard.edu/abs/2011ApJ...741...68M)  

359455 (2010 NW37)          Discovered 2010-Jul-08 by WISE at WISE
Reference: 20130327/Numbers.arcLast Updated: 2013-03-29

[ show close-approach data ]
Ephemeris | Orbit Diagram | Orbital Elements | Mission Design | Physical Parameters | Discovery Circumstances | Close-Approach Data ]
ABOUT SSD CREDITS/AWARDS PRIVACY/COPYRIGHT GLOSSARY LINKS
FirstGov 2020-Aug-14 18:12 UT
(server date/time)  
NASA Home Page
Site Manager:   Ryan S. Park
Webmaster  Alan B. Chamberlin